Location: Newark
(46.2667°N, 5.0658°E)
Time: 23:16:02
(UTC+00:00)

OTV 5 (USA 277) - Pass Details

Date: 30 September 2019
Orbit: 310 x 324 km, 54.5° (Epoch: 08 October)

Event Time Altitude Azimuth Distance (km) Brightness Sun altitude
Rises 04:51:55 0° 196° (SSW) 2,061 ? -8.5°
Reaches altitude 10° 04:54:22 10° 172° (S) 1,232 ? -8.1°
Maximum altitude 04:56:06 15° 132° (SE) 979 ? -7.8°
Drops below altitude 10° 04:57:50 10° 93° (E) 1,236 ? -7.5°
Sets 05:00:18 0° 69° (ENE) 2,071 ? -7.1°
